CZ-6A DEB, 54285

Orbit data source: Space-Track

CZ-6A DEB, 54285 is space debris in SSO originally from a launch on Fri, 11 Nov 2022 UTC launched from the Taiyaun Space Center, China (TSC). Debris objects in space refer to the collection of defunct objects orbiting the Earth. Examples of debris include non-operational satellites, rocket bodies, and fragments generated from explosions, collisions, or faulty payload assembly.

Loading next visibility...
Identifier
54285, 2022-151AC
Orbit
SSO
Country
Flag of CNCN / PRC
Related business
Manufacturer
SAST
Mission
Spacecraft
Bus & Motor
Unknown
Mass
Unknown
Launch date (UTC)
2022-11-11 (4 years ago)
Launch vehicle
Unknown
Launch site
Taiyaun Space Center, China (TSC)
Object type
Payload
Rocket body
Debris
Shape & HBR
Unknown shape, 0.1 m
Radar Cross Section
Medium (>0.1 m² and <1 m²)

Expand to show TLE details & history
Last TLE update: 2 days ago

TLE from 2 days ago
0 CZ-6A DEB
1 54285U 22151AC  26170.96746915  .00002030  00000-0  11143-2 0  9995
2 54285  98.8585 166.0441 0071438   0.7937 359.3335 14.11597755184469
Epoch: 2026-06-19T23:13Z
TLE epoch observation values (Epoch: 2026-06-19T23:13:09.334Z)
Latitude
-0.00007°
Longitude
-90.43363°
Altitude
805.137 km
Speed
7.477 km/s
True Right ascension
11h 04m 10s
True Declination
0° 00' 00"
Sunlit
Object was in daylight at epoch
Visualization orbit readout
Latitude
Unknown
Longitude
Unknown
Altitude
Unknown
Speed
Unknown
Apparent Right ascension
Unknown
Apparent Declination
Unknown
Sunlit
N/A
Visualization observer readout
Local Sidereal Time
21:39:12
Azimuth
Unknown
Elevation
Unknown
Doppler factor
Unknown
Orbital elements
Apogee altitude
902.73 km
Perigee altitude
799.442 km
Semi-major axis
7,229.223 km
Eccentricity
0.00714
Inclination
98.8585°
RAAN
166.0441°
Arg. of periapsis
0.7937°
True anomaly
359.32389°
Mean anomaly
359.3335°
Eccentric anomaly
359.3287°
Mean motion
3.53107 °/min
Orbital period
101.95 mins
BSTAR
0.0011143
Loading maneuver chart data...
Computing Atmospheric mass density...
Loading historical data...
Loading historical data...
Loading historical data...
Loading historical data...
Loading historical data...
Loading historical data...
Loading historical data...

Documentation

Showing up to 5 results
|